DW5490 Weather Reports


time (UTC)temp
C
wind
direction
speed
KPH
gust
KPH
rain 1hr
cm
rain 24hr
cm
rain mn
cm
humidity
%
barometer
mb
20260507050043 14 252 3.2 9.7 0.00 0.00 0.00 98 1006.1
20260507044538 14 269 1.6 11.3 0.00 0.00 0.00 98 1006.1
20260507043046 14 235 4.8 12.9 0.00 0.00 0.00 98 1005.8
20260507041601 14 241 4.8 11.3 0.00 0.00 0.00 98 1006.1
20260507040027 14 273 6.4 11.3 0.00 0.00 0.00 98 1006.1
20260507034524 13 216 6.4 20.9 0.00 0.00 0.00 98 1006.3
20260507033105 13 236 6.4 19.3 0.00 0.00 0.00 97 1006.2
20260507031609 13 232 8.0 16.1 0.00 0.00 0.00 98 1005.9
20260507030058 13 241 8.0 16.1 0.00 0.00 0.00 98 1005.8
20260507024601 13 220 9.7 22.5 0.00 0.00 0.00 97 1005.8
20260507023002 13 240 12.9 25.7 0.00 0.00 0.00 97 1005.8
20260507021549 13 258 8.0 20.9 0.00 0.00 0.00 97 1005.7
20260507020035 13 247 4.8 20.9 0.00 0.00 0.00 97 1005.8
20260507014555 13 198 12.9 27.4 0.00 0.00 0.00 97 1006.0
20260507013057 13 252 9.7 22.5 0.00 0.00 0.00 97 1006.3
20260507011554 13 253 9.7 22.5 0.00 0.00 0.00 97 1006.3
20260507010113 13 238 11.3 24.1 0.00 0.00 0.00 97 1006.4
20260507004551 13 210 12.9 30.6 0.00 0.00 0.00 97 1006.3
20260507003056 13 242 12.9 29.0 0.00 0.00 0.00 97 1006.3
20260507001557 13 255 9.7 24.1 0.00 0.00 0.00 97 1006.4
20260507000039 13 271 12.9 24.1 0.00 0.00 0.00 97 1006.2
20260506234529 13 200 9.7 25.7 0.00 0.00 0.00 97 1006.0
20260506233016 13 215 16.1 27.4 0.00 0.00 0.00 96 1006.1
20260506231525 13 199 11.3 20.9 0.00 0.00 0.00 96 1006.4
20260506230031 13 195 8.0 20.9 0.00 0.00 0.00 96 1006.3
20260506224544 13 225 8.0 22.5 0.00 0.00 0.00 96 1006.2
20260506223054 13 207 12.9 25.7 0.00 0.00 0.00 96 1006.4
20260506221524 13 198 11.3 29.0 0.00 0.00 0.00 95 1006.7
20260506220115 13 236 14.5 27.4 0.00 0.00 0.00 94 1006.7
20260506214604 14 215 11.3 25.7 0.00 0.00 0.00 94 1006.8
20260506213113 14 225 9.7 27.4 0.00 0.00 0.00 94 1006.9
20260506211554 14 173 11.3 29.0 0.00 0.00 0.00 94 1006.9
20260506210115 15 234 9.7 22.5 0.00 0.00 0.00 93 1007.0
20260506204504 15 223 14.5 32.2 0.00 0.00 0.00 92 1007.2
20260506203101 15 240 12.9 27.4 0.00 0.00 0.00 90 1007.0
20260506201511 15 205 11.3 25.7 0.00 0.00 0.00 89 1007.2
20260506200024 16 255 6.4 27.4 0.00 0.00 0.00 87 1007.2
20260506194522 16 228 11.3 24.1 0.00 0.00 0.00 84 1007.4
20260506193009 16 245 14.5 27.4 0.00 0.00 0.00 82 1007.5
20260506191503 17 225 14.5 27.4 0.00 0.00 0.00 78 1007.5
20260506190002 17 196 12.9 29.0 0.00 0.00 0.00 78 1007.4
20260506184606 17 157 16.1 29.0 0.00 0.00 0.00 77 1007.5
20260506183049 18 259 17.7 33.8 0.00 0.00 0.00 76 1007.7
20260506181550 18 207 14.5 29.0 0.00 0.00 0.00 75 1007.7
20260506180048 18 220 16.1 32.2 0.00 0.00 0.00 75 1008.1
20260506174544 19 216 14.5 38.6 0.00 0.00 0.00 73 1008.3
20260506173035 20 197 17.7 33.8 0.00 0.00 0.00 71 1008.4
20260506171522 19 213 16.1 30.6 0.00 0.00 0.00 72 1008.1
20260506170118 19 255 14.5 35.4 0.00 0.00 0.00 72 1008.3
20260506164540 20 155 11.3 22.5 0.00 0.00 0.00 72 1008.6
20260506163122 19 211 12.9 33.8 0.00 0.00 0.00 72 1008.7
20260506161611 20 213 11.3 37.0 0.00 0.00 0.00 71 1008.8
20260506160045 20 254 17.7 37.0 0.00 0.00 0.00 71 1009.1
20260506154553 20 213 17.7 35.4 0.00 0.00 0.00 71 1009.3
20260506153049 20 176 14.5 35.4 0.00 0.00 0.00 72 1009.7
20260506151534 20 195 12.9 29.0 0.00 0.00 0.00 71 1009.7
20260506150036 20 225 11.3 37.0 0.00 0.00 0.00 71 1009.7
20260506144529 19 244 16.1 27.4 0.00 0.00 0.00 72 1009.7
20260506143043 19 188 11.3 35.4 0.00 0.00 0.00 73 1009.6
20260506141628 19 223 14.5 30.6 0.00 0.00 0.00 74 1009.5
20260506140013 18 209 14.5 37.0 0.00 0.00 0.00 75 1009.4
20260506134505 18 196 16.1 32.2 0.00 0.00 0.00 75 1009.9
20260506133058 17 202 17.7 32.2 0.00 0.00 0.00 79 1010.2
20260506131604 17 255 12.9 41.8 0.00 0.00 0.00 80 1010.2
20260506130002 16 213 14.5 27.4 0.00 0.00 0.00 81 1010.2
20260506124604 16 243 17.7 29.0 0.00 0.00 0.00 83 1010.2
20260506123044 16 240 12.9 29.0 0.00 0.00 0.00 84 1010.1
20260506121552 15 190 14.5 27.4 0.00 0.00 0.00 86 1010.2
20260506120055 15 189 11.3 24.1 0.00 0.00 0.00 87 1010.6
20260506114604 15 179 9.7 32.2 0.00 0.00 0.00 88 1010.7
20260506113044 15 253 12.9 22.5 0.00 0.00 0.00 89 1010.7
20260506111557 14 219 14.5 30.6 0.00 0.00 0.00 90 1010.5
20260506110109 13 197 9.7 24.1 0.00 0.00 0.00 91 1010.7
20260506104603 13 228 9.7 20.9 0.00 0.00 0.00 91 1010.8
20260506103049 13 220 9.7 17.7 0.00 0.00 0.00 91 1010.7
20260506101519 13 184 4.8 20.9 0.00 0.00 0.00 90 1010.6
20260506100025 13 246 12.9 27.4 0.00 0.00 0.00 90 1010.5
20260506094509 13 207 11.3 30.6 0.00 0.00 0.00 89 1010.5
20260506093056 14 182 11.3 25.7 0.00 0.00 0.00 89 1010.3
20260506091524 14 264 11.3 27.4 0.00 0.00 0.00 89 1010.3
20260506090029 14 218 9.7 24.1 0.00 0.00 0.00 88 1010.5
20260506084509 14 228 11.3 30.6 0.00 0.00 0.00 88 1010.6
20260506083017 14 245 9.7 25.7 0.00 0.00 0.00 87 1010.6
20260506081508 15 194 14.5 29.0 0.00 0.00 0.00 87 1010.5
20260506073015 15 178 16.1 30.6 0.00 0.00 0.00 84 1010.3
20260506071513 15 244 17.7 33.8 0.00 0.00 0.00 84 1010.3
20260506061607 15 211 16.1 33.8 0.00 0.00 0.00 81 1010.2